Regional Weather Roundup
Issued by NWS

Home | Current Version | Previous Version | Text Only | Print | Product List | Glossary On
Versions: 1 2 3 4 5 6 7 8 9 10 11 12 13 14 15 16 17 18 19 20 21 22 23 24 25 26 27 28 29 30 31 32 33 34 35 36 37 38 39 40 41 42 43 44 45 46 47 48 49 50
000
ASUS43 KBIS 191302
RWRND

NORTH DAKOTA REGIONAL WEATHER ROUNDUP
NATIONAL WEATHER SERVICE BISMARCK ND
700 AM CST THU JAN 19 2017

NOTE: "FAIR" INDICATES FEW OR NO CLOUDS BELOW 12,000 FEET WITH NO
SIGNIFICANT WEATHER AND/OR OBSTRUCTIONS TO VISIBILITY.


NDZ001>003-009>011-017-191400-
NORTHWEST NORTH DAKOTA

CITY           SKY/WX    TMP DP  RH WIND       PRES   REMARKS
WILLISTON      FAIR      19  18  95 S3        29.49S
MINOT          FAIR      23  19  85 SE3       29.48S
MINOT AFB      CLOUDY    21  18  88 S8        29.47S WCI  11
$$

NDZ018>021-031>035-040>046-191400-
SOUTHWEST NORTH DAKOTA

CITY           SKY/WX    TMP DP  RH WIND       PRES   REMARKS
BISMARCK       FAIR      11   6  81 E5        29.54F WCI   3
DICKINSON      FAIR      22  15  75 SW5       29.47F WCI  16
GARRISON         N/A     16  13  88 CALM      29.50F
HETTINGER ARPT CLOUDY     8   5  87 W3        29.51F
$$

NDZ004>008-012>016-024-026-027-054-191400-
NORTHEAST NORTH DAKOTA

CITY           SKY/WX    TMP DP  RH WIND       PRES   REMARKS
GRAND FORKS    CLOUDY    22  17  81 S10       29.58F WCI  11
GRND FRKS AFB  CLOUDY    22  20  91 S10       29.57S WCI  11
DEVILS LAKE    FAIR      21  16  81 CALM      29.54R
$$

NDZ022-023-025-028>030-036>039-047>053-191400-
SOUTHEAST NORTH DAKOTA

CITY           SKY/WX    TMP DP  RH WIND       PRES   REMARKS
FARGO          FOG       27  26  96 SE9       29.62F VSB 3/4 WCI  18
JAMESTOWN      FAIR      19  16  88 CALM      29.55S
$$





USA.gov is the U.S. government's official web portal to all federal, state and local government web resources and services.